#timestamp,LO_Frequency,Hit,StdDev 
1510236015.2,286046996.8,Y
1510236035.9,286046997.1,P
1510236055.7,286046995.2,P
1510236075.6,286046997.2,N
1510236095.4,286046996.6,N
1510236115.2,286046997.5,N
1510236135.1,286046996.6,Y
1510236136.0,286046996.6,P
1510236155.8,286046998.1,P
1510236175.7,286047001.2,N
1510236195.5,286047000.8,N
1510236215.3,286047000.8,N
1510236235.2,286046998.2,N
1510236255.0,286047002.4,N
1510236255.9,286047002.4,N
1510236275.8,286047002.6,N
1510236295.6,286047002.0,N
1510236315.4,286047001.5,N
1510236335.3,286047001.5,N
1510236355.1,286047003.9,N
1510236356.0,286047003.9,N
1510236375.8,286047002.4,N
1510236395.7,286046999.9,N
1510236415.5,286047001.2,N
1510236435.3,286047002.6,N
1510236455.2,286047002.2,N
1510236475.0,286047003.8,N
1510236475.9,286047003.8,N
1510236495.8,286047001.8,N
1510236515.6,286047002.5,N
1510236535.4,286047001.4,N
1510236555.3,286047001.3,N
1510236575.1,286047001.6,N
1510236595.8,286047002.1,N
1510236615.7,286047001.1,N
1510236635.5,286047000.0,N
1510236655.4,286047000.2,N
1510236675.2,286047000.9,N
1510236695.0,286047000.5,N
1510236695.9,286047000.5,N
1510236715.8,286047000.5,N
1510236735.6,286047000.1,N
1510236755.4,286046999.8,N
1510236775.3,286047000.9,N
1510236795.1,286047001.1,N
1510236815.9,286046998.4,N
1510236835.7,286047001.0,N
1510236855.5,286047000.1,N
1510236875.4,286047000.5,N
1510236895.2,286046999.8,N
1510236915.1,286047000.5,N
1510236916.0,286047000.5,N
1510236935.8,286047000.6,N
1510236955.6,286046998.5,N
1510236975.5,286047000.7,N
1510236995.3,286046998.4,N
1510237015.1,286047001.0,N
1510237035.9,286046998.2,N
1510237055.7,286046998.2,N
1510237075.6,286046998.3,N
1510237095.4,286046998.9,N
1510237115.2,286046999.3,N
1510237135.1,286046999.5,N
1510237136.0,286046999.5,N
1510237155.8,286046998.7,N
1510237175.7,286046999.5,N
1510237195.5,286046995.1,Y
1510237215.3,286046994.9,P
1510237235.2,286046998.0,N
1510237255.0,286046997.4,N
1510237255.9,286046997.4,N
1510237275.8,286046997.0,N
1510237295.6,286046996.9,N
1510237315.4,286046997.5,N
1510237335.3,286046997.5,N
1510237355.1,286046999.2,N
1510237375.8,286046996.9,N
1510237395.7,286046999.1,N
1510237415.5,286046996.5,N
1510237435.4,286046997.0,N
1510237455.2,286046999.2,N
1510237475.0,286046998.1,N
1510237475.9,286046998.1,N
1510237495.8,286046998.4,N
1510237515.6,286046998.5,N
1510237535.4,286046998.5,N
1510237555.3,286046998.1,N
1510237575.1,286046998.8,N
1510237595.9,286046996.9,N
1510237615.7,286046997.9,N
1510237635.5,286046997.4,N
1510237655.4,286046999.4,N
1510237675.2,286046997.1,N
1510237695.0,286046999.4,N
1510237695.9,286046999.4,N
1510237715.8,286046998.5,N
1510237735.6,286047000.4,N
1510237755.5,286047000.8,N
1510237775.3,286046998.3,N
1510237795.1,286046999.3,N
1510237815.9,286046998.8,N
1510237835.7,286046998.6,N
1510237855.5,286046998.4,N
1510237875.4,286046998.6,N
1510237895.2,286047000.4,N
1510237915.1,286047002.5,N
1510237916.0,286047002.5,N
1510237935.8,286046999.8,N
1510237955.6,286047000.9,N
1510237975.5,286047000.0,N
1510237995.3,286046998.2,N
1510238015.1,286046999.9,N
1510238035.9,286046999.8,N
1510238055.7,286047004.0,N
1510238075.6,286046999.9,N
1510238095.4,286047002.3,N
1510238115.2,286047002.3,N
1510238135.1,286047004.4,N
1510238136.0,286047004.4,N
1510238155.8,286047002.6,N
1510238175.6,286047002.3,N
1510238195.5,286047002.7,N
1510238215.3,286047002.3,N
1510238235.2,286046999.8,N
1510238255.9,286047002.6,N
1510238275.7,286047003.8,N
1510238295.6,286047002.5,N
1510238315.4,286047002.4,N
1510238335.2,286047001.6,N
1510238355.1,286047002.5,N
1510238356.0,286047002.5,N
1510238375.8,286047001.8,N
1510238395.7,286047004.4,N
1510238415.5,286047001.3,N
1510238435.3,286047000.2,N
1510238455.2,286047001.9,N
1510238475.0,286047000.1,N
1510238475.9,286047000.1,N
1510238495.8,286047002.7,N
1510238515.6,286047002.7,N
1510238535.4,286047000.5,N
1510238555.3,286047000.4,N
1510238575.1,286047001.1,N
1510238595.8,286047000.6,N
1510238615.7,286047000.6,N
1510238635.5,286047002.1,N
1510238655.3,286047001.6,N
1510238675.2,286047004.3,Y
1510238695.0,286047002.5,P
1510238695.9,286047002.5,P
1510238715.8,286047002.3,P
1510238735.6,286046999.9,N
1510238755.4,286046999.9,N
1510238775.3,286047000.6,N
1510238795.1,286047000.7,N
1510238815.9,286046998.4,N
1510238835.7,286047000.7,N
1510238855.5,286047000.7,N
1510238875.4,286047000.0,N
1510238895.2,286046999.3,N
1510238915.0,286047000.5,N
1510238915.9,286047000.5,N
1510238935.8,286047000.3,N
1510238955.6,286047000.8,N
1510238975.4,286047000.8,N
1510238995.3,286046998.2,N
1510239015.1,286046998.4,N
1510239035.9,286046996.6,N
1510239055.7,286046999.3,N
1510239075.5,286046998.9,N
1510239095.4,286047000.5,N
1510239115.2,286047002.6,N
1510239135.1,286047001.4,N
1510239136.0,286047001.4,N
1510239155.8,286047002.2,N
1510239175.6,286047002.5,N
1510239195.5,286047000.2,N
1510239215.3,286047000.2,N
1510239235.1,286047002.7,N
1510239255.9,286047000.2,N
1510239275.7,286047000.3,N
1510239295.6,286047001.1,N
1510239315.4,286047002.8,N
1510239335.2,286047000.2,N
1510239355.1,286047000.3,N
1510239356.0,286047000.3,N
1510239375.8,286047002.8,N
1510239395.6,286047002.7,N
1510239415.5,286047002.3,N
1510239435.3,286047001.5,N
1510239455.2,286047004.1,N
1510239475.0,286047003.6,N
1510239475.9,286047003.6,N
1510239495.7,286047001.4,N
1510239515.6,286047001.3,N
1510239535.4,286047003.7,N
1510239555.3,286047003.7,N
1510239605.1,286047004.1,E
